Zurück zum Katalog

SS 1

AktivMilitärLEO
NORAD 10529·PAYLOAD·🇺🇸 United States

Gestartet Dec 8, 1977 von Vandenberg Space Force Base

Loading…

Nächste Überflüge (nächste 24 Stunden)

TLE

AktuellSource: Space-Track

Epoche: Sep 13, 2026, 23:33 UTC

1 10529U 77112D   26256.98181873  .00000351  00000-0  13688-3 0  9999
2 10529  63.3386 108.5664 0505032 163.8353 197.9500 13.90460534364540

Verfolge SS 1 in Echtzeit mit AllMySat

Download on the App Store